Butler, GA

4:59 PM EST on December 08, 2019 (GMT -0500)
Butler

Weather History for K6A1 - October, 2019

Change the Weather History Date:

Friday, October 11, 2019

  Actual Average (KMCN) Record (KMCN)
Temperature  
Mean Temperature 68 °F -  
Max Temperature 82 °F 78 °F 94 °F (2017)
Min Temperature 53 °F 53 °F 35 °F (2000)
Cooling Degree Days 2    
Growing Degree Days 18 (Base 50)    
Moisture  
Dew Point 50 °F    
Average Humidity 55    
Maximum Humidity 93    
Minimum Humidity 26    
Precipitation  
Precipitation 0.00 in - - ()
Sea Level Pressure  
Sea Level Pressure 30.11 in    
Wind  
Wind Speed 2 mph ()    
Max Wind Speed 9 mph    
Max Gust Speed 10 mph    
Visibility 10.0 miles    
Events      
Averages and records for this station are not official NWS values.
T = Trace of Precipitation, MM = Missing Value Source: Averaged Metar Reports

Daily Weather History Graph

Daily Weather History Graph

Search for Another Location

Airport or City:

Astronomy

Oct. 11, 2019 Rise Set
Actual Time 7:37 AM EDT 7:09 PM EDT
Civil Twilight 7:13 AM EDT 7:33 PM EDT
Nautical Twilight 6:44 AM EDT 8:02 PM EDT
Astronomical Twilight 6:16 AM EDT 8:30 PM EDT
Moon 6:27 PM EDT (10/11) 5:29 AM EDT (10/11)
Length of Visible Light 12h 20m
Length of Day
11h 31m
Waxing Gibbous, 96% of the Moon is Illuminated
Oct 11
Waxing Gibbous
Oct 13
Full
Oct 21
Last Quarter
Oct 27
New
Nov 4
First Quarter

Hourly Weather History & Observations

Time (EDT) Temp. Dew Point Humidity Pressure Visibility Wind Dir Wind Speed Gust Speed Precip Events Conditions
12:15 AM 63.7 °F 52.7 °F 67% 30.13 in 10.0 mi Calm Calm - N/A   Unknown
12:35 AM 63.0 °F 53.6 °F 71% 30.13 in 10.0 mi Calm Calm - N/A   Unknown
12:55 AM 62.8 °F 53.2 °F 71% 30.13 in 10.0 mi Calm Calm - N/A   Unknown
1:15 AM 63.1 °F 53.6 °F 71% 30.12 in 10.0 mi Calm Calm - N/A   Unknown
1:35 AM 61.7 °F 52.5 °F 72% 30.12 in 10.0 mi Calm Calm - N/A   Unknown
1:55 AM 61.5 °F 53.1 °F 74% 30.12 in 10.0 mi Calm Calm - N/A   Unknown
2:15 AM 61.9 °F 52.5 °F 71% 30.12 in 10.0 mi SE 3.5 mph - N/A   Unknown
2:35 AM 63.1 °F 52.3 °F 68% 30.12 in 10.0 mi East 3.5 mph - N/A   Unknown
2:55 AM 62.2 °F 52.2 °F 70% 30.11 in 10.0 mi ESE 3.5 mph - N/A   Unknown
3:15 AM 59.0 °F 51.6 °F 76% 30.10 in 10.0 mi Calm Calm - N/A   Unknown
3:35 AM 58.6 °F 51.4 °F 77% 30.10 in 10.0 mi Calm Calm - N/A   Unknown
3:55 AM 58.1 °F 52.0 °F 80% 30.10 in 10.0 mi Calm Calm - N/A   Unknown
4:15 AM 57.2 °F 51.3 °F 81% 30.10 in 10.0 mi Calm Calm - N/A   Unknown
4:35 AM 57.6 °F 51.8 °F 81% 30.11 in 10.0 mi Calm Calm - N/A   Unknown
4:55 AM 57.4 °F 51.8 °F 82% 30.12 in 10.0 mi Calm Calm - N/A   Unknown
5:15 AM 56.7 °F 52.5 °F 86% 30.12 in 10.0 mi Calm Calm - N/A   Unknown
5:35 AM 56.7 °F 52.2 °F 85% 30.12 in 10.0 mi Calm Calm - N/A   Unknown
5:55 AM 55.9 °F 52.2 °F 87% 30.12 in 10.0 mi Calm Calm - N/A   Unknown
6:15 AM 55.9 °F 52.5 °F 88% 30.12 in 10.0 mi Calm Calm - N/A   Unknown
6:35 AM 55.6 °F 52.7 °F 90% 30.13 in 10.0 mi Calm Calm - N/A   Unknown
7:15 AM 53.6 °F 51.6 °F 93% 30.14 in 10.0 mi Calm Calm - N/A   Unknown
7:35 AM 55.2 °F 52.7 °F 91% 30.14 in 10.0 mi Calm Calm - N/A   Unknown
8:15 AM 55.4 °F 52.9 °F 91% 30.15 in 10.0 mi Calm Calm - N/A   Unknown
8:35 AM 59.0 °F 54.3 °F 84% 30.15 in 10.0 mi Calm Calm - N/A   Unknown
8:55 AM 61.7 °F 54.7 °F 78% 30.16 in 10.0 mi Calm Calm - N/A   Unknown
9:15 AM 63.9 °F 55.6 °F 74% 30.16 in 10.0 mi East 3.5 mph - N/A   Unknown
9:35 AM 65.8 °F 57.2 °F 74% 30.17 in 10.0 mi ENE 3.5 mph - N/A   Unknown
9:55 AM 67.6 °F 58.5 °F 72% 30.17 in 10.0 mi East 3.5 mph - N/A   Unknown
10:15 AM 69.8 °F 59.0 °F 68% 30.17 in 10.0 mi East 3.5 mph - N/A   Unknown
10:35 AM 71.6 °F 58.8 °F 64% 30.17 in 10.0 mi ESE 3.5 mph - N/A   Unknown
10:55 AM 73.6 °F 53.6 °F 50% 30.17 in 10.0 mi SE 8.1 mph - N/A   Unknown
11:35 AM 75.4 °F 53.1 °F 46% 30.16 in 10.0 mi SE 6.9 mph - N/A   Unknown
11:55 AM 76.5 °F 53.6 °F 45% 30.16 in 10.0 mi East 8.1 mph - N/A   Unknown
12:15 PM 76.3 °F 53.8 °F 45% 30.16 in 10.0 mi SSE 4.6 mph 9.2 mph N/A   Unknown
12:35 PM 76.6 °F 52.7 °F 43% 30.15 in 10.0 mi ESE 6.9 mph - N/A   Unknown
12:55 PM 77.4 °F 51.6 °F 41% 30.14 in 10.0 mi SSE 5.8 mph - N/A   Unknown
1:15 PM 78.8 °F 51.3 °F 38% 30.14 in 10.0 mi East 9.2 mph - N/A   Unknown
1:35 PM 79.0 °F 50.2 °F 36% 30.12 in 10.0 mi ESE 4.6 mph - N/A   Unknown
1:55 PM 80.1 °F 50.4 °F 35% 30.12 in 10.0 mi Calm Calm - N/A   Unknown
2:15 PM 81.1 °F 49.3 °F 33% 30.10 in 10.0 mi ESE 5.8 mph - N/A   Unknown
2:35 PM 81.1 °F 48.9 °F 32% 30.09 in 10.0 mi SE 4.6 mph - N/A   Unknown
2:55 PM 81.1 °F 47.1 °F 30% 30.08 in 10.0 mi East 6.9 mph 10.4 mph N/A   Unknown
3:15 PM 81.7 °F 47.5 °F 30% 30.07 in 10.0 mi ENE 6.9 mph - N/A   Unknown
3:35 PM 81.3 °F 46.4 °F 29% 30.06 in 10.0 mi ENE 8.1 mph - N/A   Unknown
3:55 PM 81.5 °F 44.4 °F 27% 30.06 in 10.0 mi NNE 5.8 mph - N/A   Unknown
4:15 PM 81.9 °F 45.0 °F 27% 30.06 in 10.0 mi NE 5.8 mph - N/A   Unknown
4:35 PM 81.3 °F 44.2 °F 27% 30.05 in 10.0 mi NNW 4.6 mph - N/A   Unknown
5:15 PM 82.2 °F 44.4 °F 26% 30.05 in 10.0 mi ESE 6.9 mph - N/A   Unknown
5:35 PM 81.3 °F 44.1 °F 27% 30.05 in 10.0 mi Calm Calm - N/A   Unknown
5:55 PM 81.1 °F 45.0 °F 28% 30.05 in 10.0 mi East 3.5 mph - N/A   Unknown
6:15 PM 80.6 °F 44.2 °F 28% 30.06 in 10.0 mi Calm Calm - N/A   Unknown
6:35 PM 79.9 °F 44.6 °F 29% 30.05 in 10.0 mi East 3.5 mph - N/A   Unknown
6:55 PM 78.1 °F 45.0 °F 31% 30.04 in 10.0 mi SE 4.6 mph - N/A   Unknown
7:15 PM 76.1 °F 45.0 °F 33% 30.06 in 10.0 mi Calm Calm - N/A   Unknown
7:35 PM 74.1 °F 45.7 °F 36% 30.07 in 10.0 mi SE 3.5 mph - N/A   Unknown
7:55 PM 72.1 °F 46.4 °F 40% 30.07 in 10.0 mi SSE 3.5 mph - N/A   Unknown
8:15 PM 71.6 °F 46.4 °F 41% 30.06 in 10.0 mi SSE 4.6 mph - N/A   Unknown
8:35 PM 73.0 °F 45.9 °F 38% 30.07 in 10.0 mi SSE 3.5 mph - N/A   Unknown
8:55 PM 71.6 °F 46.0 °F 40% 30.07 in 10.0 mi Calm Calm - N/A   Unknown
9:15 PM 67.8 °F 46.9 °F 47% 30.07 in 10.0 mi SSE 3.5 mph - N/A   Unknown
9:35 PM 70.7 °F 46.6 °F 42% 30.08 in 10.0 mi SE 3.5 mph - N/A   Unknown
9:55 PM 66.2 °F 47.3 °F 51% 30.08 in 10.0 mi Calm Calm - N/A   Unknown
10:15 PM 67.8 °F 46.8 °F 47% 30.07 in 10.0 mi ESE 3.5 mph - N/A   Unknown
10:35 PM 65.7 °F 47.3 °F 51% 30.08 in 10.0 mi Calm Calm - N/A   Unknown
10:55 PM 68.5 °F 47.3 °F 47% 30.07 in 10.0 mi SSE 3.5 mph - N/A   Unknown
11:15 PM 69.8 °F 47.3 °F 45% 30.07 in 10.0 mi SSE 3.5 mph - N/A   Unknown
11:35 PM 67.8 °F 47.3 °F 48% 30.08 in 10.0 mi Calm Calm - N/A   Unknown
11:55 PM 69.6 °F 47.1 °F 45% 30.07 in 10.0 mi SSE 4.6 mph - N/A   Unknown